This is the latest recevied weather packets stored in our database for station/object KC5EZZ-2. If no packets are shown the sender has not sent any weather packets the latest 10 day(s).
| Time | Temp. | Humidity | Pressure | Rain* | Wind** | Luminosity | Snow |
|---|---|---|---|---|---|---|---|
| 1777069851 | 34.44° C | - | - | 0 mm | 2.68 m/s, 211° | - | - |
| 1777069551 | 33.89° C | - | - | 0 mm | 2.24 m/s, 255° | - | - |
| 1777069251 | 34.44° C | - | - | 0 mm | 3.13 m/s, 169° | - | - |
| 1777068948 | 34.44° C | - | - | 0 mm | 3.13 m/s, 211° | - | - |
| 1777068648 | 34.44° C | - | - | 0 mm | 1.34 m/s, 342° | - | - |
| 1777068349 | 34.44° C | - | - | 0 mm | 2.24 m/s, 231° | - | - |
| 1777068046 | 33.89° C | - | - | 0 mm | 2.24 m/s, 229° | - | - |
| 1777067746 | 34.44° C | - | - | 0 mm | 2.24 m/s, 231° | - | - |
| 1777067447 | 34.44° C | - | - | 0 mm | 3.13 m/s, 263° | - | - |
| 1777067144 | 35° C | - | - | 0 mm | 2.24 m/s, 257° | - | - |
| 1777066845 | 34.44° C | - | - | 0 mm | 3.13 m/s, 269° | - | - |
| 1777066545 | 34.44° C | - | - | 0 mm | 2.24 m/s, 278° | - | - |
| 1777066242 | 34.44° C | - | - | 0 mm | 2.68 m/s, 301° | - | - |
| 1777065943 | 33.33° C | - | - | 0 mm | 1.34 m/s, 291° | - | - |
| 1777065643 | 33.33° C | - | - | 0 mm | 2.68 m/s, 13° | - | - |
| 1777065340 | 34.44° C | - | - | 0 mm | 3.58 m/s, 284° | - | - |
| 1777065041 | 34.44° C | - | - | 0 mm | 1.79 m/s, 290° | - | - |
| 1777064741 | 34.44° C | - | - | 0 mm | 2.24 m/s, 267° | - | - |
| 1777064438 | 33.89° C | - | - | 0 mm | 1.79 m/s, 228° | - | - |
| 1777064139 | 33.33° C | - | - | 0 mm | 2.24 m/s, 255° | - | - |
| 1777063839 | 33.89° C | - | - | 0 mm | 2.24 m/s, 257° | - | - |
| 1777063536 | 33.89° C | - | - | 0 mm | 2.68 m/s, 273° | - | - |
| 1777063237 | 34.44° C | - | - | 0 mm | 2.24 m/s, 273° | - | - |
| 1777062937 | 34.44° C | - | - | 0 mm | 2.68 m/s, 219° | - | - |
| 1777062634 | 33.89° C | - | - | 0 mm | 3.58 m/s, 255° | - | - |
* Rain latest hour (hover to see other rain measurements)
** Current wind speed in m/s (hover to see current wind gust speed)